Flag for U.S.A. Weather past 2 weeks in Helena, Montana, U.S.A.

Now
73 °F

Sunny.


Feels Like: 77 °F
Forecast: 64 / 85 °F
Wind: No wind

Location: Helena Regional Airport

Current Time: Aug 4, 2015 at 9:01:46 AM

Latest Report: Aug 4, 2015 at 7:53 AM


Visibility: 10 mi

Pressure: 29.86 "Hg (25.88 "Hg at 1239m altitude)

Humidity: 43%

Dew point: 49 °F

Location of HelenaLocation

Historic Weather in Helena — Graph

°F

Helena temperature yesterday

Maximum temperature yesterday: 95 °F (at 3:53 PM)
Minimum temperature yesterday: 59 °F (at 5:53 AM)
Average temperature yesterday: 78 °F

Past Weeks' High & Low Weather Summary

 TemperatureHumidityPressure
High97 °F (Aug 1, 3:53 PM)90% (Jul 27, 8:53 AM)30.30 "Hg (Jul 27, 8:53 AM)
Low50 °F (Jul 29, 5:53 AM)9% (Jul 31, 4:53 PM)29.70 "Hg (Jul 22, 7:53 PM)
Average71 °F41%29.97 "Hg
* Reported Jul 20 7:53 AM — Aug 4 7:53 AM, Helena, Weather by CustomWeather, © 2015

Note: Actual official high and low records may vary slightly from our data, if they occured in-between our weather recording intervals... More about our weather records

Advertising

Helena weather history for previous 24 hours

 ConditionsComfort  
Time TempWeatherWind HumidityBarometerVisibility
7:53 AM
Tue, Aug 4
73 °FSunny.No wind43%29.86 "Hg10 mi
6:53 AM75 °FOvercast.3 mph37%29.85 "Hg10 mi
5:53 AM76 °FMostly cloudy.5 mph32%29.85 "Hg10 mi
4:53 AM77 °FOvercast.10 mph32%29.83 "Hg10 mi
3:53 AM79 °FClear.8 mph28%29.83 "Hg10 mi
2:53 AM79 °FMostly cloudy.5 mph25%29.85 "Hg10 mi
1:53 AM80 °FPassing clouds.8 mph24%29.82 "Hg10 mi
12:53 AM81 °FPassing clouds.13 mph26%29.79 "Hg10 mi
11:53 PM
Mon, Aug 3
81 °FPassing clouds.8 mph24%29.79 "Hg10 mi
10:53 PM78 °FClear.8 mph31%29.78 "Hg10 mi
9:53 PM80 °FThundershowers. Passing clouds.6 mph25%29.75 "Hg10 mi
8:53 PM88 °FSunny.13 mph18%29.73 "Hg10 mi
7:53 PM90 °FSunny.6 mph19%29.71 "Hg10 mi
6:53 PM92 °FSunny.9 mph18%29.70 "Hg10 mi
5:53 PM92 °FSunny.12 mph17%29.71 "Hg10 mi
4:53 PM94 °FSunny.14 mph16%29.72 "Hg10 mi
3:53 PM95 °FSunny.10 mph17%29.74 "Hg10 mi
2:53 PM93 °FSunny.9 mph21%29.76 "Hg10 mi
1:53 PM90 °FSunny.6 mph23%29.79 "Hg10 mi
12:53 PM87 °FSunny.No wind25%29.82 "Hg10 mi
11:53 AM81 °FSunny.3 mph29%29.85 "Hg10 mi
10:53 AM77 °FSunny.No wind33%29.87 "Hg10 mi
9:53 AM72 °FSunny.No wind38%29.89 "Hg10 mi
Weather by CustomWeather, © 2015

See weather overviewHow to use our weather pages